| time (UTC) | temp F | wind direction | speed MPH | gust MPH | rain 1hr in | rain 24hr in | rain mn in | humidity % | barometer mb |
| 20260904081453 | 76 | 136 | 0.0 | 0.0 | 0.00 | 0.81 | 0.00 | 92 | 1013.1 |
| 20260904080448 | 76 | 136 | 0.0 | 0.0 | 0.00 | 0.81 | 0.00 | 92 | 1013.1 |
| 20260904075437 | 76 | 136 | 0.0 | 0.0 | 0.00 | 0.81 | 0.00 | 92 | 1013.0 |
| 20260904074951 | 76 | 136 | 0.0 | 0.0 | 0.00 | 0.81 | 0.00 | 92 | 1013.0 |
| 20260904073952 | 76 | 136 | 0.0 | 0.0 | 0.00 | 0.81 | 0.00 | 92 | 1013.0 |
| 20260904073005 | 76 | 136 | 0.0 | 0.0 | 0.00 | 0.81 | 0.00 | 92 | 1013.0 |
| 20260904072004 | 76 | 136 | 0.0 | 0.0 | 0.00 | 0.81 | 0.00 | 92 | 1013.0 |
| 20260904070949 | 77 | 136 | 0.0 | 0.0 | 0.00 | 1.67 | 0.00 | 91 | 1013.0 |
| 20260904065939 | 77 | 136 | 0.0 | 0.0 | 0.00 | 1.67 | 0.00 | 91 | 1013.1 |
| 20260904065455 | 77 | 136 | 0.0 | 0.0 | 0.00 | 1.67 | 0.00 | 91 | 1013.1 |
| 20260904064956 | 77 | 136 | 0.0 | 0.0 | 0.00 | 1.67 | 0.00 | 90 | 1013.2 |
| 20260904064436 | 77 | 136 | 0.0 | 0.0 | 0.00 | 1.67 | 0.00 | 90 | 1013.2 |
| 20260904063954 | 77 | 136 | 0.0 | 0.0 | 0.00 | 1.67 | 0.00 | 90 | 1013.2 |
| 20260904063440 | 77 | 136 | 0.0 | 0.0 | 0.00 | 1.67 | 0.00 | 90 | 1013.2 |
| 20260904062937 | 77 | 136 | 0.0 | 0.0 | 0.00 | 1.67 | 0.00 | 90 | 1013.1 |
| 20260904062454 | 77 | 136 | 0.0 | 0.0 | 0.00 | 1.67 | 0.00 | 89 | 1013.1 |
| 20260904061955 | 77 | 136 | 0.0 | 0.0 | 0.00 | 1.67 | 0.00 | 89 | 1013.1 |
| 20260904061455 | 77 | 136 | 0.0 | 0.0 | 0.00 | 1.88 | 0.00 | 89 | 1013.1 |
| 20260904060945 | 78 | 136 | 0.0 | 0.0 | 0.00 | 1.88 | 0.00 | 88 | 1013.1 |
| 20260904060430 | 78 | 136 | 0.0 | 0.0 | 0.00 | 1.88 | 0.00 | 88 | 1013.0 |
| 20260904055957 | 78 | 136 | 0.0 | 0.0 | 0.00 | 1.88 | 0.00 | 88 | 1013.0 |
| 20260904055428 | 78 | 136 | 0.0 | 0.0 | 0.00 | 1.88 | 0.00 | 88 | 1013.0 |
| 20260904054935 | 78 | 136 | 0.0 | 0.0 | 0.00 | 1.88 | 0.00 | 87 | 1012.9 |
| 20260904054439 | 78 | 136 | 0.0 | 0.0 | 0.00 | 1.88 | 0.00 | 87 | 1012.9 |
| 20260904053953 | 78 | 136 | 0.0 | 0.0 | 0.00 | 1.88 | 0.00 | 87 | 1012.9 |
| 20260904053456 | 78 | 136 | 0.0 | 0.0 | 0.00 | 1.88 | 0.00 | 86 | 1012.8 |
| 20260904052956 | 78 | 136 | 0.0 | 0.0 | 0.00 | 1.88 | 0.00 | 86 | 1012.8 |
| 20260904052447 | 78 | 136 | 0.0 | 0.0 | 0.00 | 1.88 | 0.00 | 86 | 1012.9 |
| 20260904051930 | 79 | 136 | 0.0 | 0.0 | 0.00 | 1.88 | 0.00 | 85 | 1012.9 |
| 20260904051449 | 79 | 136 | 0.0 | 0.0 | 0.00 | 1.89 | 1.88 | 85 | 1012.9 |
| 20260904050940 | 79 | 136 | 0.0 | 0.0 | 0.00 | 1.89 | 1.88 | 85 | 1012.9 |
| 20260904050457 | 79 | 136 | 0.0 | 0.0 | 0.00 | 1.89 | 1.88 | 85 | 1012.9 |
| 20260904050022 | 79 | 136 | 0.0 | 0.0 | 0.00 | 1.89 | 1.88 | 84 | 1013.0 |
| 20260904044955 | 79 | 136 | 0.0 | 0.0 | 0.00 | 1.89 | 1.88 | 83 | 1013.0 |
| 20260904044525 | 79 | 136 | 0.0 | 0.0 | 0.00 | 1.89 | 1.88 | 83 | 1013.0 |
| 20260904043953 | 79 | 136 | 0.0 | 0.0 | 0.00 | 1.89 | 1.88 | 83 | 1013.1 |
| 20260904042949 | 79 | 136 | 0.0 | 0.0 | 0.00 | 1.89 | 1.88 | 82 | 1013.1 |
| 20260904042430 | 80 | 136 | 0.0 | 0.0 | 0.00 | 1.89 | 1.88 | 82 | 1013.2 |
| 20260904041955 | 80 | 136 | 0.0 | 0.0 | 0.00 | 1.89 | 1.88 | 81 | 1013.2 |
| 20260904040954 | 80 | 136 | 0.0 | 0.0 | 0.00 | 1.96 | 1.88 | 81 | 1013.1 |
| 20260904035953 | 80 | 136 | 0.0 | 0.0 | 0.00 | 1.96 | 1.88 | 81 | 1013.1 |
| 20260904035526 | 80 | 136 | 0.0 | 0.0 | 0.00 | 1.96 | 1.88 | 81 | 1013.1 |
| 20260904034939 | 80 | 111 | 0.0 | 0.0 | 0.00 | 1.96 | 1.88 | 80 | 1013.1 |
| 20260904033944 | 80 | 111 | 0.0 | 0.0 | 0.00 | 1.96 | 1.88 | 80 | 1013.1 |
| 20260904032939 | 81 | 112 | 0.0 | 0.0 | 0.00 | 1.96 | 1.88 | 79 | 1013.1 |
| 20260904032529 | 81 | 111 | 0.0 | 0.0 | 0.00 | 1.96 | 1.88 | 79 | 1013.2 |
| 20260904031936 | 81 | 111 | 0.0 | 0.0 | 0.00 | 1.96 | 1.88 | 79 | 1013.2 |
| 20260904031514 | 81 | 111 | 0.0 | 1.0 | 0.00 | 2.27 | 1.88 | 79 | 1013.2 |
| 20260904030932 | 81 | 111 | 0.0 | 1.0 | 0.00 | 2.27 | 1.88 | 78 | 1013.2 |
| 20260904025954 | 81 | 130 | 0.0 | 0.0 | 0.00 | 2.27 | 1.88 | 78 | 1013.0 |
| 20260904025438 | 81 | 130 | 0.0 | 0.0 | 0.00 | 2.27 | 1.88 | 78 | 1013.0 |
| 20260904025007 | 82 | 89 | 0.0 | 0.0 | 0.00 | 2.27 | 1.88 | 78 | 1012.9 |
| 20260904024512 | 82 | 89 | 0.0 | 1.0 | 0.00 | 2.27 | 1.88 | 78 | 1012.9 |
| 20260904023455 | 82 | 89 | 0.0 | 0.0 | 0.00 | 2.27 | 1.88 | 78 | 1012.8 |
| 20260904023044 | 82 | 89 | 0.0 | 0.0 | 0.00 | 2.27 | 1.88 | 78 | 1012.7 |
| 20260904022432 | 82 | 89 | 0.0 | 0.0 | 0.00 | 2.27 | 1.88 | 78 | 1012.6 |
| 20260904021434 | 83 | 89 | 0.0 | 1.0 | 0.00 | 2.45 | 1.88 | 77 | 1012.5 |
| 20260904021015 | 83 | 89 | 0.0 | 0.0 | 0.00 | 2.45 | 1.88 | 76 | 1012.4 |
| 20260904015954 | 83 | 86 | 0.0 | 0.0 | 0.00 | 2.45 | 1.88 | 76 | 1012.4 |
| 20260904014957 | 84 | 86 | 0.0 | 0.0 | 0.00 | 2.45 | 1.88 | 75 | 1012.3 |
| 20260904013945 | 84 | 86 | 0.0 | 0.0 | 0.00 | 2.45 | 1.88 | 74 | 1012.1 |
| 20260904013521 | 84 | 86 | 0.0 | 0.0 | 0.00 | 2.45 | 1.88 | 73 | 1011.9 |
| 20260904013018 | 84 | 86 | 0.0 | 0.0 | 0.00 | 2.45 | 1.88 | 73 | 1011.9 |
| 20260904012531 | 84 | 86 | 0.0 | 0.0 | 0.00 | 2.45 | 1.88 | 72 | 1011.7 |
| 20260904011508 | 85 | 86 | 0.0 | 0.0 | 0.00 | 2.45 | 1.88 | 71 | 1011.7 |
| 20260904011032 | 85 | 86 | 0.0 | 0.0 | 0.00 | 2.45 | 1.88 | 70 | 1011.7 |
| 20260904010003 | 86 | 86 | 0.0 | 0.0 | 0.00 | 2.45 | 1.88 | 69 | 1011.5 |
| 20260904005516 | 86 | 86 | 0.0 | 0.0 | 0.00 | 2.45 | 1.88 | 68 | 1011.6 |
| 20260904004459 | 87 | 94 | 0.0 | 0.0 | 0.00 | 2.45 | 1.88 | 66 | 1011.5 |
| 20260904003432 | 88 | 94 | 0.0 | 0.0 | 0.00 | 2.45 | 1.88 | 65 | 1011.4 |
| 20260904002952 | 89 | 94 | 0.0 | 0.0 | 0.00 | 2.45 | 1.88 | 64 | 1011.3 |
| 20260904001947 | 90 | 93 | 0.0 | 1.0 | 0.00 | 2.45 | 1.88 | 62 | 1011.3 |
| 20260904001526 | 91 | 93 | 0.0 | 2.0 | 0.00 | 2.45 | 1.88 | 61 | 1011.3 |
| 20260904000954 | 91 | 91 | 1.0 | 2.0 | 0.00 | 2.45 | 1.88 | 60 | 1011.3 |
| 20260903235932 | 91 | 236 | 0.0 | 1.0 | 0.00 | 2.45 | 1.88 | 62 | 1011.3 |
| 20260903234951 | 90 | 270 | 0.0 | 2.0 | 0.00 | 2.45 | 1.88 | 62 | 1011.2 |
| 20260903233949 | 90 | 82 | 0.0 | 3.0 | 0.00 | 2.45 | 1.88 | 61 | 1011.3 |
| 20260903233001 | 90 | 264 | 0.0 | 1.0 | 0.00 | 2.45 | 1.88 | 61 | 1011.3 |
| 20260903231957 | 91 | 271 | 0.0 | 1.0 | 0.00 | 2.45 | 1.88 | 59 | 1011.2 |
| 20260903230955 | 92 | 322 | 0.0 | 2.0 | 0.00 | 2.45 | 1.88 | 58 | 1011.2 |
| 20260903225952 | 92 | 233 | 0.0 | 2.0 | 0.00 | 2.45 | 1.88 | 58 | 1011.3 |
| 20260903225504 | 93 | 245 | 0.0 | 2.0 | 0.00 | 2.45 | 1.88 | 57 | 1011.3 |
| 20260903225017 | 93 | 81 | 0.0 | 1.0 | 0.00 | 2.45 | 1.88 | 56 | 1011.4 |
| 20260903224513 | 93 | 288 | 0.0 | 2.0 | 0.00 | 2.45 | 1.88 | 56 | 1011.5 |
| 20260903223937 | 92 | 290 | 0.0 | 3.0 | 0.00 | 2.45 | 1.88 | 57 | 1011.4 |
| 20260903223511 | 93 | 300 | 0.0 | 3.0 | 0.00 | 2.45 | 1.88 | 55 | 1011.5 |
| 20260903222955 | 93 | 286 | 0.0 | 2.0 | 0.00 | 2.45 | 1.88 | 56 | 1011.5 |
| 20260903222525 | 93 | 103 | 1.0 | 2.0 | 0.00 | 2.45 | 1.88 | 57 | 1011.6 |
| 20260903221939 | 93 | 270 | 1.0 | 3.0 | 0.00 | 2.45 | 1.88 | 57 | 1011.6 |
| 20260903220954 | 93 | 188 | 0.0 | 3.0 | 0.00 | 2.45 | 1.88 | 57 | 1011.6 |
| 20260903220458 | 93 | 275 | 1.0 | 3.0 | 0.00 | 2.45 | 1.88 | 57 | 1011.6 |
| 20260903220026 | 93 | 267 | 1.0 | 3.0 | 0.00 | 2.45 | 1.88 | 55 | 1011.7 |
| 20260903215434 | 93 | 304 | 0.0 | 4.0 | 0.00 | 2.45 | 1.88 | 57 | 1011.7 |
| 20260903215022 | 93 | 240 | 2.0 | 4.0 | 0.00 | 2.45 | 1.88 | 55 | 1011.8 |
| 20260903214431 | 93 | 232 | 0.0 | 4.0 | 0.00 | 2.45 | 1.88 | 57 | 1011.8 |
| 20260903214003 | 94 | 276 | 2.0 | 4.0 | 0.00 | 2.45 | 1.88 | 55 | 1011.9 |
| 20260903212937 | 93 | 223 | 0.0 | 4.0 | 0.00 | 2.45 | 1.88 | 58 | 1011.9 |
| 20260903211945 | 92 | 275 | 1.0 | 4.0 | 0.00 | 2.45 | 1.88 | 58 | 1011.8 |
| 20260903211002 | 93 | 271 | 1.0 | 3.0 | 0.00 | 2.45 | 1.88 | 58 | 1011.8 |
| 20260903210436 | 93 | 270 | 1.0 | 4.0 | 0.00 | 2.45 | 1.88 | 57 | 1011.9 |
| 20260903210015 | 93 | 250 | 0.0 | 5.0 | 0.00 | 2.45 | 1.88 | 56 | 1012.0 |
| 20260903204953 | 94 | 276 | 1.0 | 2.0 | 0.00 | 2.45 | 1.88 | 54 | 1012.1 |
| 20260903204507 | 94 | 78 | 0.0 | 0.0 | 0.00 | 2.45 | 1.88 | 56 | 1012.2 |
| 20260903203941 | 93 | 233 | 0.0 | 3.0 | 0.00 | 2.45 | 1.88 | 57 | 1012.3 |
| 20260903202947 | 92 | 268 | 0.0 | 2.0 | 0.00 | 2.45 | 1.88 | 59 | 1012.3 |
| 20260903202518 | 92 | 257 | 0.0 | 5.0 | 0.00 | 2.45 | 1.88 | 59 | 1012.3 |
| 20260903201936 | 92 | 304 | 1.0 | 5.0 | 0.00 | 2.45 | 1.88 | 58 | 1012.4 |
| 20260903200941 | 92 | 282 | 0.0 | 1.0 | 0.00 | 2.45 | 1.88 | 59 | 1012.6 |
| 20260903200515 | 92 | 300 | 0.0 | 2.0 | 0.00 | 2.45 | 1.88 | 63 | 1012.7 |
| 20260903195931 | 90 | 38 | 0.0 | 2.0 | 0.00 | 2.45 | 1.88 | 64 | 1012.7 |
| 20260903195459 | 91 | 268 | 1.0 | 2.0 | 0.00 | 2.45 | 1.88 | 62 | 1012.8 |
| 20260903195026 | 91 | 269 | 1.0 | 4.0 | 0.00 | 2.45 | 1.88 | 60 | 1012.9 |
| 20260903194508 | 91 | 113 | 1.0 | 4.0 | 0.00 | 2.45 | 1.88 | 61 | 1013.0 |
| 20260903193451 | 90 | 78 | 0.0 | 4.0 | 0.00 | 2.45 | 1.88 | 63 | 1013.1 |
| 20260903193004 | 90 | 84 | 2.0 | 4.0 | 0.00 | 2.45 | 1.88 | 64 | 1013.2 |
| 20260903192513 | 90 | 103 | 1.0 | 4.0 | 0.00 | 2.45 | 1.88 | 66 | 1013.2 |
| 20260903190946 | 89 | 115 | 2.0 | 5.0 | 0.00 | 2.45 | 1.88 | 65 | 1013.4 |
| 20260903185947 | 91 | 99 | 0.0 | 5.0 | 0.00 | 2.45 | 1.88 | 65 | 1013.6 |
| 20260903184943 | 90 | 87 | 1.0 | 4.0 | 0.00 | 2.45 | 1.88 | 65 | 1013.7 |
| 20260903184545 | 89 | 229 | 0.0 | 4.0 | 0.00 | 2.45 | 1.88 | 66 | 1013.9 |
| 20260903183931 | 89 | 96 | 1.0 | 4.0 | 0.00 | 2.45 | 1.88 | 66 | 1013.9 |
| 20260903183502 | 90 | 105 | 1.0 | 4.0 | 0.00 | 2.45 | 1.88 | 64 | 1014.0 |
| 20260903182450 | 90 | 269 | 1.0 | 2.0 | 0.00 | 2.45 | 1.88 | 65 | 1014.3 |
| 20260903182003 | 90 | 154 | 1.0 | 3.0 | 0.00 | 2.45 | 1.88 | 66 | 1014.3 |
| 20260903181517 | 89 | 47 | 0.0 | 3.0 | 0.00 | 2.45 | 1.88 | 69 | 1014.4 |
| 20260903180500 | 89 | 171 | 0.0 | 3.0 | 0.00 | 2.45 | 1.88 | 68 | 1014.6 |
| 20260903175452 | 89 | 287 | 0.0 | 3.0 | 0.00 | 2.45 | 1.88 | 68 | 1014.7 |
| 20260903174521 | 89 | 63 | 1.0 | 8.0 | 0.00 | 2.45 | 1.88 | 66 | 1014.9 |
| 20260903173937 | 89 | 118 | 1.0 | 3.0 | 0.00 | 2.45 | 1.88 | 68 | 1015.0 |
| 20260903172957 | 89 | 73 | 2.0 | 4.0 | 0.00 | 2.45 | 1.88 | 68 | 1015.0 |
| 20260903172503 | 88 | 74 | 1.0 | 3.0 | 0.00 | 2.45 | 1.88 | 68 | 1015.1 |
| 20260903171448 | 88 | 103 | 1.0 | 5.0 | 0.00 | 2.45 | 1.88 | 70 | 1015.1 |
| 20260903170442 | 88 | 78 | 1.0 | 6.0 | 0.00 | 2.45 | 1.88 | 68 | 1015.1 |
| 20260903170023 | 88 | 88 | 0.0 | 5.0 | 0.00 | 2.45 | 1.88 | 72 | 1015.1 |
| 20260903165437 | 87 | 85 | 0.0 | 5.0 | 0.00 | 2.45 | 1.88 | 70 | 1015.1 |
| 20260903165013 | 88 | 126 | 1.0 | 3.0 | 0.00 | 2.45 | 1.88 | 68 | 1015.2 |
| 20260903164439 | 88 | 317 | 0.0 | 2.0 | 0.00 | 2.45 | 1.88 | 72 | 1015.1 |
| 20260903164004 | 88 | 190 | 0.0 | 2.0 | 0.00 | 2.45 | 1.88 | 71 | 1015.2 |
| 20260903162953 | 87 | 132 | 0.0 | 2.0 | 0.00 | 2.45 | 1.88 | 73 | 1015.1 |
| 20260903162509 | 86 | 343 | 0.0 | 3.0 | 0.00 | 2.45 | 1.88 | 73 | 1015.0 |
| 20260903161454 | 86 | 172 | 1.0 | 3.0 | 0.00 | 2.45 | 1.88 | 73 | 1015.1 |
| 20260903160444 | 85 | 251 | 1.0 | 3.0 | 0.00 | 2.45 | 1.88 | 76 | 1015.2 |
| 20260903155454 | 84 | 297 | 0.0 | 2.0 | 0.00 | 2.45 | 1.88 | 79 | 1015.1 |
| 20260903154500 | 83 | 90 | 0.0 | 3.0 | 0.00 | 2.45 | 1.88 | 81 | 1015.0 |
| 20260903153437 | 83 | 146 | 1.0 | 5.0 | 0.00 | 2.45 | 1.88 | 81 | 1014.9 |
| 20260903153008 | 83 | 108 | 0.0 | 2.0 | 0.00 | 2.45 | 1.88 | 83 | 1014.8 |
| 20260903151951 | 81 | 188 | 0.0 | 1.0 | 0.00 | 2.45 | 1.88 | 88 | 1014.8 |
| 20260903150948 | 80 | 83 | 0.0 | 4.0 | 0.00 | 2.45 | 1.88 | 91 | 1014.7 |
| 20260903145933 | 78 | 329 | 0.0 | 1.0 | 0.00 | 2.45 | 1.88 | 93 | 1014.6 |
| 20260903145458 | 78 | 331 | 0.0 | 1.0 | 0.00 | 2.45 | 1.88 | 93 | 1014.6 |
| 20260903144500 | 77 | 109 | 0.0 | 1.0 | 0.00 | 2.45 | 1.88 | 95 | 1014.6 |
| 20260903143440 | 76 | 81 | 0.0 | 3.0 | 0.00 | 2.45 | 1.88 | 96 | 1014.8 |
| 20260903142501 | 76 | 229 | 0.0 | 0.0 | 0.00 | 2.45 | 1.88 | 96 | 1014.8 |
| 20260903141440 | 75 | 153 | 0.0 | 0.0 | 0.00 | 2.45 | 1.88 | 97 | 1014.8 |
| 20260903141010 | 75 | 278 | 0.0 | 1.0 | 0.00 | 2.45 | 1.88 | 96 | 1014.9 |
| 20260903135943 | 75 | 248 | 0.0 | 2.0 | 0.00 | 2.45 | 1.88 | 96 | 1014.9 |
| 20260903135516 | 75 | 269 | 0.0 | 2.0 | 0.00 | 2.45 | 1.88 | 96 | 1014.9 |
| 20260903134511 | 75 | 184 | 0.0 | 0.0 | 0.00 | 2.45 | 1.88 | 97 | 1014.8 |
| 20260903133450 | 75 | 126 | 0.0 | 0.0 | 0.00 | 2.45 | 1.88 | 97 | 1014.7 |
| 20260903133023 | 75 | 126 | 0.0 | 0.0 | 0.00 | 2.45 | 1.88 | 97 | 1014.6 |
| 20260903132441 | 74 | 219 | 0.0 | 0.0 | 0.00 | 2.45 | 1.88 | 97 | 1014.7 |
| 20260903132010 | 74 | 165 | 0.0 | 1.0 | 0.00 | 2.45 | 1.88 | 97 | 1014.8 |
| 20260903131531 | 74 | 165 | 0.0 | 1.0 | 0.00 | 2.45 | 1.88 | 97 | 1014.7 |
| 20260903130509 | 74 | 284 | 0.0 | 1.0 | 0.00 | 2.45 | 1.88 | 97 | 1015.0 |
| 20260903125504 | 74 | 284 | 0.0 | 1.0 | 0.00 | 2.45 | 1.88 | 97 | 1015.1 |
| 20260903125038 | 73 | 284 | 0.0 | 1.0 | 0.00 | 2.45 | 1.88 | 97 | 1015.0 |
| 20260903124454 | 73 | 290 | 0.0 | 0.0 | 0.00 | 2.45 | 1.88 | 97 | 1014.9 |
| 20260903123437 | 73 | 290 | 0.0 | 1.0 | 0.00 | 2.45 | 1.88 | 97 | 1014.7 |
| 20260903122959 | 73 | 290 | 0.0 | 0.0 | 0.00 | 2.45 | 1.88 | 97 | 1014.7 |
| 20260903122511 | 73 | 290 | 0.0 | 1.0 | 0.00 | 2.45 | 1.88 | 97 | 1014.6 |
| 20260903121435 | 72 | 290 | 0.0 | 1.0 | 0.00 | 2.45 | 1.88 | 97 | 1014.6 |
| 20260903120945 | 72 | 86 | 0.0 | 1.0 | 0.00 | 2.45 | 1.88 | 97 | 1014.5 |
| 20260903115928 | 72 | 86 | 0.0 | 2.0 | 0.00 | 2.45 | 1.88 | 96 | 1014.5 |
| 20260903115501 | 72 | 89 | 0.0 | 3.0 | 0.00 | 2.45 | 1.88 | 96 | 1014.5 |
| 20260903114453 | 73 | 96 | 0.0 | 1.0 | 0.00 | 2.45 | 1.88 | 96 | 1014.5 |
| 20260903114001 | 73 | 97 | 0.0 | 1.0 | 0.00 | 2.45 | 1.88 | 96 | 1014.5 |
| 20260903112953 | 73 | 14 | 0.0 | 1.0 | 0.00 | 2.45 | 1.88 | 96 | 1014.5 |
| 20260903112522 | 73 | 92 | 0.0 | 2.0 | 0.00 | 2.45 | 1.88 | 96 | 1014.3 |
| 20260903111932 | 73 | 86 | 0.0 | 2.0 | 0.00 | 2.45 | 1.88 | 96 | 1014.4 |
| 20260903111446 | 73 | 98 | 0.0 | 1.0 | 0.00 | 2.45 | 1.88 | 97 | 1014.4 |
| 20260903111015 | 73 | 323 | 0.0 | 1.0 | 0.00 | 2.45 | 1.88 | 97 | 1014.3 |
| 20260903110440 | 73 | 88 | 0.0 | 3.0 | 0.00 | 2.45 | 1.88 | 97 | 1014.3 |
| 20260903110010 | 73 | 88 | 0.0 | 3.0 | 0.00 | 2.45 | 1.88 | 97 | 1014.2 |
| 20260903105527 | 73 | 240 | 0.0 | 0.0 | 0.00 | 2.45 | 1.88 | 97 | 1013.9 |
| 20260903104938 | 73 | 240 | 0.0 | 0.0 | 0.00 | 2.45 | 1.88 | 97 | 1013.7 |
| 20260903104514 | 73 | 240 | 0.0 | 0.0 | 0.01 | 2.45 | 1.88 | 97 | 1013.6 |
| 20260903103937 | 73 | 240 | 0.0 | 0.0 | 0.01 | 2.45 | 1.88 | 97 | 1013.5 |
| 20260903103506 | 73 | 240 | 0.0 | 1.0 | 0.01 | 2.45 | 1.88 | 97 | 1013.4 |
| 20260903103035 | 73 | 291 | 0.0 | 1.0 | 0.01 | 2.45 | 1.88 | 97 | 1013.6 |
| 20260903102429 | 73 | 294 | 0.0 | 1.0 | 0.04 | 2.45 | 1.88 | 96 | 1013.7 |
| 20260903102004 | 73 | 348 | 0.0 | 2.0 | 0.07 | 2.45 | 1.88 | 96 | 1013.8 |
| 20260903101433 | 73 | 16 | 0.0 | 2.0 | 0.10 | 2.45 | 1.88 | 96 | 1013.8 |
| 20260903101015 | 74 | 96 | 0.0 | 2.0 | 0.14 | 2.45 | 1.88 | 96 | 1013.8 |
| 20260903095929 | 74 | 98 | 0.0 | 1.0 | 0.33 | 2.45 | 1.88 | 96 | 1013.8 |
| 20260903095449 | 74 | 88 | 0.0 | 0.0 | 0.46 | 2.45 | 1.88 | 97 | 1013.9 |
| 20260903095022 | 74 | 126 | 0.0 | 1.0 | 0.56 | 2.45 | 1.88 | 97 | 1013.9 |
| 20260903093948 | 74 | 141 | 0.0 | 1.0 | 0.63 | 2.44 | 1.87 | 97 | 1013.9 |
| 20260903093524 | 74 | 140 | 0.0 | 1.0 | 0.65 | 2.44 | 1.87 | 97 | 1013.9 |
| 20260903092931 | 74 | 88 | 0.0 | 0.0 | 0.65 | 2.43 | 1.86 | 97 | 1014.0 |
| 20260903092501 | 74 | 88 | 0.0 | 1.0 | 0.64 | 2.41 | 1.84 | 97 | 1013.9 |
| 20260903091448 | 74 | 88 | 0.0 | 2.0 | 0.62 | 2.35 | 1.78 | 96 | 1013.8 |
| 20260903090509 | 74 | 119 | 0.0 | 4.0 | 0.58 | 2.28 | 1.71 | 96 | 1014.0 |
| 20260903085930 | 73 | 143 | 0.0 | 4.0 | 0.43 | 2.12 | 1.55 | 96 | 1014.1 |
| 20260903085507 | 73 | 103 | 0.0 | 4.0 | 0.28 | 1.97 | 1.40 | 96 | 1014.2 |
| 20260903084521 | 74 | 83 | 2.0 | 5.0 | 0.16 | 1.84 | 1.27 | 96 | 1014.0 |
| 20260903083442 | 74 | 76 | 0.0 | 1.0 | 0.11 | 1.78 | 1.21 | 96 | 1013.8 |
| 20260903082933 | 74 | 72 | 0.0 | 2.0 | 0.12 | 1.78 | 1.21 | 96 | 1013.7 |
| 20260903082514 | 74 | 350 | 0.0 | 2.0 | 0.11 | 1.77 | 1.20 | 96 | 1013.7 |
| 20260903081926 | 73 | 247 | 0.0 | 1.0 | 0.10 | 1.74 | 1.17 | 96 | 1013.8 |